QZS-2 (QZSS/PRN 194)

Last updated on Sat Sep 05 2026 00:03:32 GMT+0000 (Coordinated Universal Time)

1 42738U 17028A 26247.30893214 -.00000115 00000+0 00000+0 0 9999 2 42738 39.3147 241.9875 0751764 270.3047 84.2209 1.00263619 8429
UTC large
Height (km)
Speed (km/s)
/
Latitude / Longitude
Inclination (degrees)
Orbital Period (minutes)
Azimuth
Elevation
Range (km)
Doppler Factor

Next 0 passes for location: London (51.5072 / 0.1276)

No passes found over London.
QZS-2 (QZSS/PRN 194)